NOAA 16 DEB, 41377

Orbit data source: Space-Track

NOAA 16 DEB, 41377 is space debris in SSO originally from a launch on Thu, 21 Sep 2000 UTC launched from the Air Force Western Test Range (AFWTR). Debris objects in space refer to the collection of defunct objects orbiting the Earth. Examples of debris include non-operational satellites, rocket bodies, and fragments generated from explosions, collisions, or faulty payload assembly.

Loading next visibility...
Identifier
41377, 2000-055JW
Orbit
SSO
Country
Flag of USUS
Related business
Manufacturer
Unknown
Mission
Spacecraft
Bus & Motor
Unknown
Mass
Unknown
Launch date (UTC)
2000-09-21 (26 years ago)
Launch vehicle
Unknown
Launch site
Air Force Western Test Range (AFWTR)
Object type
Payload
Rocket body
Debris
Shape & HBR
Unknown shape, 0.1 m
Radar Cross Section
Medium (>0.1 m² and <1 m²)

Expand to show TLE details & history
Last TLE update: 3 days ago

TLE from 3 days ago
0 NOAA 16 DEB
1 41377U 00055JW  26233.54849688  .00003431  00000-0  12801-2 0  9995
2 41377  98.8317 346.8061 0022070 163.9516 196.2370 14.32468056548970
Epoch: 2026-08-21T13:09Z
TLE epoch observation values (Epoch: 2026-08-21T13:09:50.130Z)
Latitude
-0.0001°
Longitude
179.47557°
Altitude
801.602 km
Speed
7.445 km/s
True Right ascension
23h 07m 13s
True Declination
0° 00' 00"
Sunlit
Object was in full shadow at epoch
Visualization orbit readout
Latitude
Unknown
Longitude
Unknown
Altitude
Unknown
Speed
Unknown
Apparent Right ascension
Unknown
Apparent Declination
Unknown
Sunlit
N/A
Visualization observer readout
Local Sidereal Time
22:41:46
Azimuth
Unknown
Elevation
Unknown
Doppler factor
Unknown
Orbital elements
Apogee altitude
796.44 km
Perigee altitude
764.841 km
Semi-major axis
7,158.778 km
Eccentricity
0.00221
Inclination
98.8317°
RAAN
346.8061°
Arg. of periapsis
163.9516°
True anomaly
196.16647°
Mean anomaly
196.237°
Eccentric anomaly
196.20172°
Mean motion
3.58331 °/min
Orbital period
100.47 mins
BSTAR
0.0012801
Loading maneuver chart data...
Computing Atmospheric mass density...
Loading historical data...
Loading historical data...
Loading historical data...
Loading historical data...
Loading historical data...
Loading historical data...
Loading historical data...

Documentation

Showing up to 5 results
|